Regional Weather Roundup
Issued by NWS

Home | Current Version | Previous Version | Text Only | Print | Product List | Glossary Off
Versions: 1 2 3 4 5 6 7 8 9 10 11 12 13 14 15 16 17 18 19 20 21 22 23 24 25 26 27 28 29 30 31 32 33 34 35 36 37 38 39 40 41 42 43 44 45 46 47 48 49 50

697
ASUS43 KDTX 090410
RWRMI
MICHIGAN HOURLY REGIONAL WEATHER ROUNDUP
NATIONAL WEATHER SERVICE DETROIT/PONTIAC MI
1100 PM EST THU DEC 08 2016

NOTE: "FAIR" INDICATES FEW OR NO CLOUDS BELOW 12,000 FEET WITH NO
SIGNIFICANT WEATHER AND/OR OBSTRUCTION TO VISIBILITY.

MIZ047>049-052>055-059>063-066>070-074>076-081>083-090500-
SOUTHEAST LOWER MICHIGAN

CITY           SKY/WX    TMP DP  RH WIND       PRES   REMARKS
ADRIAN         CLOUDY    22  18  85 W10       30.28R WCI  11
ALMA           PTCLDY    26  24  91 W6        30.22R WCI  20
ANN ARBOR      LGT SNOW  24  21  88 SW14      30.23R FOG     WCI  12
BAD AXE        CLEAR     26  18  72 W7        30.15R WCI  18
CARO           CLEAR     25  23  93 W7        30.17R WCI  17
DETROIT CITY   CLOUDY    26  22  84 W13       30.22R WCI  15
DETROIT        LGT SNOW  25  21  85 SW16      30.24R FOG     WCI  12
FLINT          MOCLDY    27  23  85 W10       30.20R WCI  17
GROSSE ILE     MOCLDY    24  19  82 W12G17    30.23S WCI  13
HILLSDALE      CLOUDY    21  18  86 W10G17    30.25R WCI  10
HOWELL         CLOUDY    28  24  87 W9        30.21R WCI  19

CITY           SKY/WX    TMP DP  RH WIND       PRES   REMARKS
JACKSON        CLOUDY    24  19  81 W14       30.24R WCI  12
LAMBERTVILLE   CLOUDY    24  18  78 W14G20    30.28S WCI  12
LANSING        FLURRIES  27  23  85 W14       30.23S WCI  16
LAPEER         NOT AVBL
MASON          LGT SNOW  27  24  91 W7        30.23R WCI  19
MONROE         MOCLDY    24  19  83 W13G20    30.25S WCI  12
MT. CLEMENS    FLURRIES  29  23  79 W12G21    30.17S WCI  19
PONTIAC        FLURRIES  27  23  85 W10       30.18R WCI  17
PORT HOPE        N/A     30  20  66 NW16G29   30.11R WCI  19
PORT HURON     PTCLDY    27  23  86 W5        30.18R WCI  21
TRI CITIES     CLEAR     23  22  96 W8        30.21R WCI  14
MIDLAND        FAIR      26  22  85 W5        30.20R WCI  20
TROY           LGT SNOW  29  24  82 W5        30.22R WCI  23
SAGINAW HB     CLEAR     27  23  86 W8        30.19R WCI  18
$$
MIZ043>046-050>051-056>058-064>065-071>073-077>080-090500-
SOUTHWEST LOWER MICHIGAN

CITY           SKY/WX    TMP DP  RH WIND       PRES   REMARKS
BATTLE CREEK   CLOUDY    26  23  88 W13G20    30.26R WCI  15
BENTON HARBOR  LGT SNOW  29  21  72 W15       30.33R WCI  18
BIG RAPIDS     LGT SNOW  26  24  91 W5        30.20R WCI  20
COLDWATER      CLOUDY    21  18  88 SW12      30.28R WCI   9
FREMONT        LGT SNOW  28  27  97 NW8       30.24R WCI  20
HOLLAND        LGT SNOW  30  24  78 W10G22    30.27R WCI  21
GRAND RAPIDS   FLURRIES  28  24  85 W10       30.25R WCI  19
IONIA          CLOUDY    27  25  94 W9        30.23R WCI  17
KALAMAZOO      LGT SNOW  26  22  84 SW9       30.28R FOG     WCI  17
LUDINGTON      CLOUDY    31  19  62 NW10G22   30.23R WCI  22
MARSHALL       CLOUDY    24  21  90 SW9       30.26R WCI  14
MOUNT PLEASANT PTCLDY    26  23  89 W5        30.20R WCI  20
MUSKEGON       FLURRIES  32  23  69 NW15G25   30.25S WCI  22
SOUTH HAVEN    LGT SNOW  30  24  79 W14G21    30.30R WCI  19
$$
MIZ016>042-090500-
NORTHERN LOWER MICHIGAN

CITY           SKY/WX    TMP DP  RH WIND       PRES   REMARKS
ALPENA         LGT SNOW  25  21  85 NW9       30.14R VSB 1   WCI  15
BEAVER ISLAND  CLOUDY    28  20  74 NW10G22   30.18S WCI  18
BELLAIRE       FLURRIES  28  24  83 N8        30.19R WCI  20
CADILLAC       MOCLDY    22  20  93 W5        30.16R WCI  15
CHARLEVOIX     MOCLDY    30  21  69 NW17G25   30.19S WCI  18
FRANKFORT      CLOUDY    32  20  63 NW14G22   30.22R WCI  22
GAYLORD        LGT SNOW  25  18  74 VRB6      30.11S WCI  18
GRAYLING       LGT SNOW  23  21  92 W5        30.14S WCI  17
HARBOR SPRINGS LGT SNOW  27  21  77 N6G17     30.16R WCI  21
HOUGHTON LAKE  LGT SNOW  25  22  88 W9        30.16R FOG     WCI  15
MANISTEE       CLOUDY    31  19  61 NW12      30.22R WCI  22
OSCODA         CLEAR     22  15  76 MISG      30.13S
PELLSTON       CLOUDY    26  20  77 NW6       30.16R WCI  19
ROGERS CITY    CLOUDY    28  18  67 N10G18    30.14R WCI  18
TRAVERSE CITY  FLURRIES  31  21  66 N15G23    30.19R WCI  20
$$
MIZ007>008-015-090500-
EASTERN UPPER MICHIGAN

CITY           SKY/WX    TMP DP  RH WIND       PRES   REMARKS
KINROSS        CLOUDY    20  13  74 N6        30.16R WCI  12
MACKINAC ISLAN FLURRIES  23  19  83 N5        30.16R WCI  17
NEWBERRY       CLOUDY    22  21  95 W3        30.16S
S. S. MARIE    CLOUDY    21  12  68 N8        30.15R WCI  11
MUNISING         N/A     29  22  75 NW23      30.20R WCI  15
$$
MIZ004>006-011>014-085-090500-
CENTRAL UPPER MICHIGAN

CITY           SKY/WX    TMP DP  RH WIND       PRES   REMARKS
MANISTIQUE     LGT SNOW  23  22  98 W8        30.20R WCI  14
ESCANABA       CLEAR     23  14  68 NW10      30.26R WCI  12
MENOMINEE      PTCLDY    24  17  74 VRB5      30.30R WCI  18
SAWYER-GWINN   CLOUDY    18  15  88 NW8       30.22R WCI   8
$$
MIZ001>003-009>011-084-090500-
WESTERN UPPER MICHIGAN

CITY           SKY/WX    TMP DP  RH WIND       PRES   REMARKS
IRON MOUNTAIN  MOCLDY    20  12  71 NW9       30.25R WCI   9
HOUGHTON       SNOW      20  16  84 NW9       30.25S VSB 1/2 WCI   9
COPPER HARBOR    N/A     25  21  85 NE17G30   30.26R WCI  12
IRONWOOD       LGT SNOW  19  17  92 N7G17     30.32S VSB 1   WCI  10
$$

ABBREVIATIONS USED IN REMARKS
   TC - TEMPERATURE IN CELSIUS
  WCI - WIND CHILL INDEX
   HX - HEAT INDEX
  VSB - VISIBILITY





USA.gov is the U.S. government's official web portal to all federal, state and local government web resources and services.